Voltar ao catálogo

STARLINK-5453

AtivoComunicaçõesVLEO
NORAD 54773·PAYLOAD·🇺🇸 United States

Lançado Dec 17, 2022 de Cape Canaveral Space Force Station

Loading…

Próximas Passagens (próximas 24 horas)

TLE

AtualizadoSource: CelesTrak SupGP

Época: Sep 14, 2026, 20:57 UTC

1 54773C 22175R   26257.87340278  .00049444  00000+0  14612-2 0  2571
2 54773  53.1578 264.0884 0001225  83.6872 278.0372 15.34358100    13

Acompanhe STARLINK-5453 em tempo real com AllMySat

Download on the App Store